Tracking 30995 objects as of 7-Jul-2025
HD Live streaming from Space Station
objects crossing your sky now

STARLINK-30247

Track STARLINK-30247 now!
10-day predictions
STARLINK-30247 is classified as:


NORAD ID: 57644
Int'l Code: 2023-122N
Perigee: 565.2 km
Apogee: 567.2 km
Inclination: 43.0 °
Period: 95.8 minutes
Semi major axis: 6937 km
RCS: Unknown
Launch date: August 17, 2023
Source: United States (US)
Launch site: AIR FORCE EASTERN TEST RANGE (AFETR)
Your satellite tracking list
Your tracking list is empty




NASA's NSSDC Master Catalog

Two Line Element Set (TLE):
1 57644U 23122N   25187.52513910 -.00000694  00000-0 -36309-4 0  9991
2 57644  43.0054 352.1162 0001433 265.2553  94.8126 15.02532841105156
Source of the keplerian elements: AFSPC